Time,TemperatureF,DewpointF,PressureIn,WindDirection,WindDirectionDegrees,WindSpeedMPH,WindSpeedGustMPH,Humidity,HourlyPrecipIn,Conditions,Clouds,dailyrainin,SoftwareType,DateUTC
2013-03-02 00:00:00,49.4,22.2,30.28,SE,126,0.0,0.0,34,0.00,,CLR,0.00,VWS V14.01,2013-03-02 08:00:00,
2013-03-02 00:05:00,49.1,22.0,30.28,SE,126,0.0,0.0,34,0.00,,CLR,0.00,VWS V14.01,2013-03-02 08:05:00,
2013-03-02 00:10:00,48.9,22.5,30.28,SE,126,0.0,0.0,35,0.00,,CLR,0.00,VWS V14.01,2013-03-02 08:10:00,
2013-03-02 00:15:00,48.7,22.3,30.28,SE,126,0.0,0.0,35,0.00,,CLR,0.00,VWS V14.01,2013-03-02 08:15:00,
2013-03-02 00:20:00,48.5,22.1,30.28,SE,126,0.0,0.0,35,0.00,,CLR,0.00,VWS V14.01,2013-03-02 08:20:00,
2013-03-02 00:26:00,48.3,21.9,30.28,SE,126,0.0,0.0,35,0.00,,CLR,0.00,VWS V14.01,2013-03-02 08:26:00,
2013-03-02 00:31:00,48.0,22.3,30.29,SE,126,0.0,0.0,36,0.00,,CLR,0.00,VWS V14.01,2013-03-02 08:31:00,
2013-03-02 00:36:00,47.8,22.2,30.28,SE,126,0.0,2.0,36,0.00,,CLR,0.00,VWS V14.01,2013-03-02 08:36:00,
2013-03-02 00:41:00,47.6,22.6,30.29,SE,126,0.0,2.0,37,0.00,,CLR,0.00,VWS V14.01,2013-03-02 08:41:00,
2013-03-02 00:46:00,47.3,22.4,30.29,SE,126,0.0,0.0,37,0.00,,CLR,0.00,VWS V14.01,2013-03-02 08:46:00,
2013-03-02 00:51:00,47.1,22.8,30.29,SE,126,0.0,0.0,38,0.00,,CLR,0.00,VWS V14.01,2013-03-02 08:51:00,
2013-03-02 00:56:00,46.9,22.6,30.29,SE,126,0.0,0.0,38,0.00,,CLR,0.00,VWS V14.01,2013-03-02 08:56:00,
2013-03-02 01:01:00,46.7,22.5,30.29,SE,126,0.0,0.0,38,0.00,,CLR,0.00,VWS V14.01,2013-03-02 09:01:00,
2013-03-02 01:06:00,46.4,22.8,30.29,SE,126,0.0,0.0,39,0.00,,CLR,0.00,VWS V14.01,2013-03-02 09:06:00,
2013-03-02 01:11:00,46.2,23.2,30.29,SE,126,0.0,0.0,40,0.00,,CLR,0.00,VWS V14.01,2013-03-02 09:11:00,
2013-03-02 01:16:00,45.9,23.5,30.29,SE,126,0.0,0.0,41,0.00,,CLR,0.00,VWS V14.01,2013-03-02 09:16:00,
2013-03-02 01:21:00,45.7,23.4,30.28,SE,126,0.0,0.0,41,0.00,,CLR,0.00,VWS V14.01,2013-03-02 09:21:00,
2013-03-02 01:27:00,45.4,23.1,30.29,SE,126,0.0,0.0,41,0.00,,CLR,0.00,VWS V14.01,2013-03-02 09:27:00,
2013-03-02 01:32:00,45.1,22.8,30.29,SE,126,0.0,0.0,41,0.00,,CLR,0.00,VWS V14.01,2013-03-02 09:32:00,
2013-03-02 01:37:00,44.9,23.2,30.28,SE,126,0.0,0.0,42,0.00,,CLR,0.00,VWS V14.01,2013-03-02 09:37:00,
2013-03-02 01:42:00,44.7,23.0,30.28,SE,126,0.0,0.0,42,0.00,,CLR,0.00,VWS V14.01,2013-03-02 09:42:00,
2013-03-02 01:47:00,44.6,23.5,30.28,SE,126,0.0,1.0,43,0.00,,CLR,0.00,VWS V14.01,2013-03-02 09:47:00,
2013-03-02 01:52:00,44.7,23.6,30.28,SE,126,0.0,0.0,43,0.00,,CLR,0.00,VWS V14.01,2013-03-02 09:52:00,
2013-03-02 01:57:00,44.7,23.6,30.27,SE,126,0.0,0.0,43,0.00,,CLR,0.00,VWS V14.01,2013-03-02 09:57:00,
2013-03-02 02:02:00,44.6,23.5,30.27,SE,126,0.0,0.0,43,0.00,,CLR,0.00,VWS V14.01,2013-03-02 10:02:00,
2013-03-02 02:08:00,44.5,23.4,30.27,SE,126,0.0,1.0,43,0.00,,CLR,0.00,VWS V14.01,2013-03-02 10:08:00,
2013-03-02 02:14:00,44.5,23.4,30.27,SE,126,0.0,0.0,43,0.00,,CLR,0.00,VWS V14.01,2013-03-02 10:14:00,
2013-03-02 02:19:00,44.4,23.3,30.27,SE,126,0.0,1.0,43,0.00,,CLR,0.00,VWS V14.01,2013-03-02 10:19:00,
2013-03-02 02:24:00,44.3,23.2,30.26,SE,126,0.0,0.0,43,0.00,,CLR,0.00,VWS V14.01,2013-03-02 10:24:00,
2013-03-02 02:29:00,44.3,23.2,30.26,SE,126,0.0,0.0,43,0.00,,CLR,0.00,VWS V14.01,2013-03-02 10:29:00,
2013-03-02 02:34:00,44.3,23.2,30.26,SE,126,0.0,0.0,43,0.00,,CLR,0.00,VWS V14.01,2013-03-02 10:34:00,
2013-03-02 02:39:00,44.2,23.1,30.26,SE,126,0.0,0.0,43,0.00,,CLR,0.00,VWS V14.01,2013-03-02 10:39:00,
2013-03-02 02:45:00,44.0,23.0,30.26,SE,126,0.0,0.0,43,0.00,,CLR,0.00,VWS V14.01,2013-03-02 10:45:00,
2013-03-02 02:50:00,43.7,23.2,30.25,SE,126,0.0,0.0,44,0.00,,CLR,0.00,VWS V14.01,2013-03-02 10:50:00,
2013-03-02 02:55:00,43.5,23.6,30.25,SE,126,0.0,1.0,45,0.00,,CLR,0.00,VWS V14.01,2013-03-02 10:55:00,
2013-03-02 03:00:00,43.4,23.5,30.25,SE,126,0.0,0.0,45,0.00,,CLR,0.00,VWS V14.01,2013-03-02 11:00:00,
2013-03-02 03:05:00,43.3,23.4,30.25,SE,126,0.0,0.0,45,0.00,,CLR,0.00,VWS V14.01,2013-03-02 11:05:00,
2013-03-02 03:10:00,43.1,23.7,30.25,SE,126,0.0,0.0,46,0.00,,CLR,0.00,VWS V14.01,2013-03-02 11:10:00,
2013-03-02 03:15:00,42.9,23.0,30.25,SE,126,0.0,0.0,45,0.00,,CLR,0.00,VWS V14.01,2013-03-02 11:15:00,
2013-03-02 03:20:00,42.7,23.4,30.25,SE,126,0.0,0.0,46,0.00,,CLR,0.00,VWS V14.01,2013-03-02 11:20:00,
2013-03-02 03:25:00,42.4,23.6,30.25,SE,126,0.0,0.0,47,0.00,,CLR,0.00,VWS V14.01,2013-03-02 11:25:00,
2013-03-02 03:30:00,42.1,23.3,30.25,SE,126,0.0,0.0,47,0.00,,CLR,0.00,VWS V14.01,2013-03-02 11:30:00,
2013-03-02 03:35:00,41.8,24.1,30.25,SE,126,0.0,0.0,49,0.00,,CLR,0.00,VWS V14.01,2013-03-02 11:35:00,
2013-03-02 03:40:00,41.6,23.9,30.25,SE,126,0.0,0.0,49,0.00,,CLR,0.00,VWS V14.01,2013-03-02 11:40:00,
2013-03-02 03:45:00,41.5,23.8,30.25,SE,126,0.0,0.0,49,0.00,,CLR,0.00,VWS V14.01,2013-03-02 11:45:00,
2013-03-02 03:51:00,41.3,23.1,30.25,SE,126,0.0,0.0,48,0.00,,CLR,0.00,VWS V14.01,2013-03-02 11:51:00,
2013-03-02 03:56:00,41.2,23.5,30.25,SE,126,0.0,0.0,49,0.00,,CLR,0.00,VWS V14.01,2013-03-02 11:56:00,
2013-03-02 04:01:00,41.0,23.8,30.25,SE,126,0.0,0.0,50,0.00,,CLR,0.00,VWS V14.01,2013-03-02 12:01:00,
2013-03-02 04:06:00,40.9,24.2,30.25,SE,126,0.0,0.0,51,0.00,,CLR,0.00,VWS V14.01,2013-03-02 12:06:00,
2013-03-02 04:11:00,40.7,24.0,30.25,SE,126,0.0,0.0,51,0.00,,CLR,0.00,VWS V14.01,2013-03-02 12:11:00,
2013-03-02 04:16:00,40.6,23.9,30.25,SE,126,0.0,0.0,51,0.00,,CLR,0.00,VWS V14.01,2013-03-02 12:16:00,
2013-03-02 04:21:00,40.4,23.7,30.25,SE,126,0.0,0.0,51,0.00,,CLR,0.00,VWS V14.01,2013-03-02 12:21:00,
2013-03-02 04:26:00,40.3,23.1,30.25,SE,126,0.0,0.0,50,0.00,,CLR,0.00,VWS V14.01,2013-03-02 12:26:00,
2013-03-02 04:31:00,40.2,23.5,30.25,SE,126,0.0,0.0,51,0.00,,CLR,0.00,VWS V14.01,2013-03-02 12:31:00,
2013-03-02 04:36:00,40.0,23.8,30.25,SE,126,0.0,0.0,52,0.00,,CLR,0.00,VWS V14.01,2013-03-02 12:36:00,
2013-03-02 04:41:00,40.0,23.8,30.25,SE,126,0.0,0.0,52,0.00,,CLR,0.00,VWS V14.01,2013-03-02 12:41:00,
2013-03-02 04:46:00,40.0,23.8,30.26,SE,126,0.0,0.0,52,0.00,,CLR,0.00,VWS V14.01,2013-03-02 12:46:00,
2013-03-02 04:51:00,39.9,23.7,30.26,SE,126,0.0,0.0,52,0.00,,CLR,0.00,VWS V14.01,2013-03-02 12:51:00,
2013-03-02 04:57:00,39.9,23.7,30.26,SE,126,0.0,0.0,52,0.00,,CLR,0.00,VWS V14.01,2013-03-02 12:57:00,
2013-03-02 05:02:00,39.8,23.6,30.25,SE,126,0.0,0.0,52,0.00,,CLR,0.00,VWS V14.01,2013-03-02 13:02:00,
2013-03-02 05:07:00,39.7,24.0,30.26,SE,126,0.0,0.0,53,0.00,,CLR,0.00,VWS V14.01,2013-03-02 13:07:00,
2013-03-02 05:12:00,39.7,24.0,30.25,SE,126,0.0,0.0,53,0.00,,CLR,0.00,VWS V14.01,2013-03-02 13:12:00,
2013-03-02 05:17:00,39.6,23.9,30.26,SE,126,0.0,0.0,53,0.00,,CLR,0.00,VWS V14.01,2013-03-02 13:17:00,
2013-03-02 05:22:00,39.6,23.9,30.26,SE,126,0.0,0.0,53,0.00,,CLR,0.00,VWS V14.01,2013-03-02 13:22:00,
2013-03-02 05:27:00,39.5,23.8,30.26,SE,126,0.0,0.0,53,0.00,,CLR,0.00,VWS V14.01,2013-03-02 13:27:00,
2013-03-02 05:32:00,39.4,24.1,30.26,SE,126,0.0,1.0,54,0.00,,CLR,0.00,VWS V14.01,2013-03-02 13:32:00,
2013-03-02 05:37:00,39.3,23.6,30.26,SE,126,0.0,0.0,53,0.00,,CLR,0.00,VWS V14.01,2013-03-02 13:37:00,
2013-03-02 05:42:00,39.3,24.1,30.26,SE,126,0.0,0.0,54,0.00,,CLR,0.00,VWS V14.01,2013-03-02 13:42:00,
2013-03-02 05:47:00,39.3,24.1,30.26,SE,126,0.0,0.0,54,0.00,,CLR,0.00,VWS V14.01,2013-03-02 13:47:00,
2013-03-02 05:52:00,39.3,24.1,30.26,SE,126,0.0,0.0,54,0.00,,CLR,0.00,VWS V14.01,2013-03-02 13:52:00,
2013-03-02 05:57:00,39.3,24.1,30.26,SE,126,0.0,0.0,54,0.00,,CLR,0.00,VWS V14.01,2013-03-02 13:57:00,
2013-03-02 06:02:00,39.2,24.0,30.26,SE,126,0.0,0.0,54,0.00,,CLR,0.00,VWS V14.01,2013-03-02 14:02:00,
2013-03-02 06:08:00,39.1,24.3,30.26,SE,126,0.0,0.0,55,0.00,,CLR,0.00,VWS V14.01,2013-03-02 14:08:00,
2013-03-02 06:13:00,39.1,24.3,30.26,SE,126,0.0,0.0,55,0.00,,CLR,0.00,VWS V14.01,2013-03-02 14:13:00,
2013-03-02 06:18:00,39.1,23.9,30.26,SE,126,0.0,0.0,54,0.00,,CLR,0.00,VWS V14.01,2013-03-02 14:18:00,
2013-03-02 06:23:00,39.0,23.8,30.26,SE,126,0.0,0.0,54,0.00,,CLR,0.00,VWS V14.01,2013-03-02 14:23:00,
2013-03-02 06:28:00,38.9,24.1,30.26,SE,126,0.0,0.0,55,0.00,,CLR,0.00,VWS V14.01,2013-03-02 14:28:00,
2013-03-02 06:33:00,38.9,24.1,30.26,SE,126,0.0,0.0,55,0.00,,CLR,0.00,VWS V14.01,2013-03-02 14:33:00,
2013-03-02 06:38:00,39.0,24.6,30.26,SE,126,0.0,0.0,56,0.00,,CLR,0.00,VWS V14.01,2013-03-02 14:38:00,
2013-03-02 06:43:00,39.1,24.7,30.26,SE,126,0.0,0.0,56,0.00,,CLR,0.00,VWS V14.01,2013-03-02 14:43:00,
2013-03-02 06:48:00,39.2,24.8,30.26,SE,126,0.0,0.0,56,0.00,,CLR,0.00,VWS V14.01,2013-03-02 14:48:00,
2013-03-02 06:53:00,39.5,25.1,30.26,SE,126,0.0,0.0,56,0.00,,CLR,0.00,VWS V14.01,2013-03-02 14:53:00,
2013-03-02 06:58:00,39.9,25.5,30.26,SE,126,0.0,0.0,56,0.00,,CLR,0.00,VWS V14.01,2013-03-02 14:58:00,
2013-03-02 07:03:00,40.4,26.0,30.26,SE,126,0.0,0.0,56,0.00,,CLR,0.00,VWS V14.01,2013-03-02 15:03:00,
2013-03-02 07:08:00,41.2,26.7,30.26,SE,126,0.0,0.0,56,0.00,,CLR,0.00,VWS V14.01,2013-03-02 15:08:00,
2013-03-02 07:13:00,42.1,26.7,30.26,SE,126,0.0,0.0,54,0.00,,CLR,0.00,VWS V14.01,2013-03-02 15:13:00,
2013-03-02 07:18:00,43.3,27.8,30.26,SE,126,0.0,0.0,54,0.00,,CLR,0.00,VWS V14.01,2013-03-02 15:18:00,
2013-03-02 07:23:00,44.2,27.2,30.27,SE,126,0.0,0.0,51,0.00,,CLR,0.00,VWS V14.01,2013-03-02 15:23:00,
2013-03-02 07:29:00,45.1,27.6,30.27,SE,126,0.0,0.0,50,0.00,,CLR,0.00,VWS V14.01,2013-03-02 15:29:00,
2013-03-02 07:34:00,45.8,27.7,30.27,SE,126,0.0,0.0,49,0.00,,CLR,0.00,VWS V14.01,2013-03-02 15:34:00,
2013-03-02 07:39:00,46.8,27.6,30.27,SE,126,0.0,0.0,47,0.00,,CLR,0.00,VWS V14.01,2013-03-02 15:39:00,
2013-03-02 07:44:00,47.9,27.0,30.27,SE,126,0.0,0.0,44,0.00,,CLR,0.00,VWS V14.01,2013-03-02 15:44:00,
2013-03-02 07:49:00,49.4,23.6,30.27,SE,126,0.0,0.0,36,0.00,,CLR,0.00,VWS V14.01,2013-03-02 15:49:00,
2013-03-02 07:54:00,50.5,23.9,30.27,SE,126,0.0,0.0,35,0.00,,CLR,0.00,VWS V14.01,2013-03-02 15:54:00,
2013-03-02 07:59:00,51.7,25.6,30.27,SE,126,0.0,2.0,36,0.00,,CLR,0.00,VWS V14.01,2013-03-02 15:59:00,
2013-03-02 08:04:00,52.4,26.2,30.27,SE,126,0.0,0.0,36,0.00,,CLR,0.00,VWS V14.01,2013-03-02 16:04:00,
2013-03-02 08:09:00,53.1,26.2,30.27,SE,126,0.0,0.0,35,0.00,,CLR,0.00,VWS V14.01,2013-03-02 16:09:00,
2013-03-02 08:14:00,53.5,26.5,30.27,SE,126,0.0,2.0,35,0.00,,CLR,0.00,VWS V14.01,2013-03-02 16:14:00,
2013-03-02 08:19:00,54.1,26.4,30.27,SE,126,0.0,0.0,34,0.00,,CLR,0.00,VWS V14.01,2013-03-02 16:19:00,
2013-03-02 08:24:00,54.3,27.2,30.27,SE,126,0.0,0.0,35,0.00,,CLR,0.00,VWS V14.01,2013-03-02 16:24:00,
2013-03-02 08:29:00,54.2,26.5,30.27,SSE,152,0.0,2.0,34,0.00,,CLR,0.00,VWS V14.01,2013-03-02 16:29:00,
2013-03-02 08:34:00,54.2,26.5,30.27,SSE,152,1.0,1.0,34,0.00,,CLR,0.00,VWS V14.01,2013-03-02 16:34:00,
2013-03-02 08:39:00,54.3,26.5,30.27,SSE,152,0.0,2.0,34,0.00,,CLR,0.00,VWS V14.01,2013-03-02 16:39:00,
2013-03-02 08:45:00,54.6,26.8,30.27,SSE,152,0.0,0.0,34,0.00,,CLR,0.00,VWS V14.01,2013-03-02 16:45:00,
2013-03-02 08:50:00,55.4,26.8,30.26,SSE,152,0.0,0.0,33,0.00,,CLR,0.00,VWS V14.01,2013-03-02 16:50:00,
2013-03-02 08:55:00,56.1,25.9,30.26,SSE,152,0.0,2.0,31,0.00,,CLR,0.00,VWS V14.01,2013-03-02 16:55:00,
2013-03-02 09:00:00,57.0,25.1,30.26,SSE,152,0.0,2.0,29,0.00,,CLR,0.00,VWS V14.01,2013-03-02 17:00:00,
2013-03-02 09:05:00,57.6,24.8,30.26,SSE,152,0.0,0.0,28,0.00,,CLR,0.00,VWS V14.01,2013-03-02 17:05:00,
2013-03-02 09:10:00,58.7,25.7,30.26,SSE,152,0.0,0.0,28,0.00,,CLR,0.00,VWS V14.01,2013-03-02 17:10:00,
2013-03-02 09:15:00,59.5,24.6,30.26,SSE,152,0.0,2.0,26,0.00,,CLR,0.00,VWS V14.01,2013-03-02 17:15:00,
2013-03-02 09:20:00,60.5,25.5,30.26,SSE,152,0.0,0.0,26,0.00,,CLR,0.00,VWS V14.01,2013-03-02 17:20:00,
2013-03-02 09:25:00,60.9,24.9,30.26,SSE,152,0.0,1.0,25,0.00,,CLR,0.00,VWS V14.01,2013-03-02 17:25:00,
2013-03-02 09:30:00,61.8,25.6,30.25,SSE,152,1.0,1.0,25,0.00,,CLR,0.00,VWS V14.01,2013-03-02 17:30:00,
2013-03-02 09:35:00,62.2,24.0,30.25,SSE,152,0.0,2.0,23,0.00,,CLR,0.00,VWS V14.01,2013-03-02 17:35:00,
2013-03-02 09:40:00,62.9,24.6,30.25,SSE,152,1.0,4.0,23,0.00,,CLR,0.00,VWS V14.01,2013-03-02 17:40:00,
2013-03-02 09:46:00,62.9,24.6,30.25,SSE,153,1.0,4.0,23,0.00,,CLR,0.00,VWS V14.01,2013-03-02 17:46:00,
2013-03-02 09:51:00,63.6,24.1,30.24,SSE,152,2.0,5.0,22,0.00,,CLR,0.00,VWS V14.01,2013-03-02 17:51:00,
2013-03-02 09:56:00,64.1,24.5,30.25,SSE,150,1.0,5.0,22,0.00,,CLR,0.00,VWS V14.01,2013-03-02 17:56:00,
2013-03-02 10:01:00,64.7,25.0,30.25,SSE,150,1.0,2.0,22,0.00,,CLR,0.00,VWS V14.01,2013-03-02 18:01:00,
2013-03-02 10:06:00,65.0,24.1,30.25,SSE,153,2.0,5.0,21,0.00,,CLR,0.00,VWS V14.01,2013-03-02 18:06:00,
2013-03-02 10:11:00,65.0,23.0,30.25,SSE,159,1.0,1.0,20,0.00,,CLR,0.00,VWS V14.01,2013-03-02 18:11:00,
2013-03-02 10:16:00,64.9,24.1,30.24,SSE,159,1.0,4.0,21,0.00,,CLR,0.00,VWS V14.01,2013-03-02 18:16:00,
2013-03-02 10:21:00,65.1,24.2,30.24,SSE,159,0.0,0.0,21,0.00,,CLR,0.00,VWS V14.01,2013-03-02 18:21:00,
2013-03-02 10:26:00,65.3,24.4,30.24,SSE,159,1.0,1.0,21,0.00,,CLR,0.00,VWS V14.01,2013-03-02 18:26:00,
2013-03-02 10:31:00,65.6,23.5,30.24,SSE,159,1.0,5.0,20,0.00,,CLR,0.00,VWS V14.01,2013-03-02 18:31:00,
2013-03-02 10:36:00,65.6,24.6,30.24,SSE,159,2.0,5.0,21,0.00,,CLR,0.00,VWS V14.01,2013-03-02 18:36:00,
2013-03-02 10:41:00,66.4,22.9,30.24,SSE,159,0.0,1.0,19,0.00,,CLR,0.00,VWS V14.01,2013-03-02 18:41:00,
2013-03-02 10:47:00,66.7,23.2,30.23,SSE,159,0.0,1.0,19,0.00,,CLR,0.00,VWS V14.01,2013-03-02 18:47:00,
2013-03-02 10:52:00,67.1,23.5,30.23,SSE,159,2.0,2.0,19,0.00,,CLR,0.00,VWS V14.01,2013-03-02 18:52:00,
2013-03-02 10:57:00,67.3,22.4,30.23,SSE,159,4.0,5.0,18,0.00,,CLR,0.00,VWS V14.01,2013-03-02 18:57:00,
2013-03-02 11:02:00,67.6,22.6,30.23,SSE,161,2.0,5.0,18,0.00,,CLR,0.00,VWS V14.01,2013-03-02 19:02:00,
2013-03-02 11:07:00,67.6,23.9,30.23,SSE,161,2.0,5.0,19,0.00,,CLR,0.00,VWS V14.01,2013-03-02 19:07:00,
2013-03-02 11:12:00,68.4,24.6,30.22,SSE,154,0.0,1.0,19,0.00,,CLR,0.00,VWS V14.01,2013-03-02 19:12:00,
2013-03-02 11:17:00,68.8,23.6,30.22,SSE,154,0.0,2.0,18,0.00,,CLR,0.00,VWS V14.01,2013-03-02 19:17:00,
2013-03-02 11:22:00,69.8,24.4,30.21,SSE,148,2.0,5.0,18,0.00,,CLR,0.00,VWS V14.01,2013-03-02 19:22:00,
2013-03-02 11:27:00,70.1,23.3,30.21,SSE,148,0.0,5.0,17,0.00,,CLR,0.00,VWS V14.01,2013-03-02 19:27:00,
2013-03-02 11:32:00,70.8,23.9,30.21,ESE,116,4.0,5.0,17,0.00,,CLR,0.00,VWS V14.01,2013-03-02 19:32:00,
2013-03-02 11:37:00,70.9,24.0,30.20,ESE,111,4.0,5.0,17,0.00,,CLR,0.00,VWS V14.01,2013-03-02 19:37:00,
2013-03-02 11:42:00,71.2,24.2,30.20,East,92,2.0,5.0,17,0.00,,CLR,0.00,VWS V14.01,2013-03-02 19:42:00,
2013-03-02 11:48:00,71.3,22.8,30.20,ENE,65,3.0,7.0,16,0.00,,CLR,0.00,VWS V14.01,2013-03-02 19:48:00,
2013-03-02 11:53:00,71.2,24.2,30.20,ENE,59,1.0,3.0,17,0.00,,CLR,0.00,VWS V14.01,2013-03-02 19:53:00,
2013-03-02 11:58:00,71.3,24.3,30.20,ENE,59,0.0,3.0,17,0.00,,CLR,0.00,VWS V14.01,2013-03-02 19:58:00,
2013-03-02 12:03:00,71.6,24.5,30.19,ENE,59,0.0,2.0,17,0.00,,CLR,0.00,VWS V14.01,2013-03-02 20:03:00,
2013-03-02 12:08:00,71.7,23.1,30.19,WNW,297,5.0,8.0,16,0.00,,CLR,0.00,VWS V14.01,2013-03-02 20:08:00,
2013-03-02 12:13:00,72.2,25.0,30.18,NE,42,3.0,5.0,17,0.00,,CLR,0.00,VWS V14.01,2013-03-02 20:13:00,
2013-03-02 12:18:00,72.3,25.1,30.18,NE,43,2.0,5.0,17,0.00,,CLR,0.00,VWS V14.01,2013-03-02 20:18:00,
2013-03-02 12:23:00,72.6,23.9,30.17,NE,46,1.0,4.0,16,0.00,,CLR,0.00,VWS V14.01,2013-03-02 20:23:00,
2013-03-02 12:28:00,72.6,25.3,30.17,NE,46,0.0,4.0,17,0.00,,CLR,0.00,VWS V14.01,2013-03-02 20:28:00,
2013-03-02 12:33:00,73.1,24.3,30.16,ENE,77,2.0,4.0,16,0.00,,CLR,0.00,VWS V14.01,2013-03-02 20:33:00,
2013-03-02 12:38:00,73.4,24.5,30.16,ENE,77,0.0,4.0,16,0.00,,CLR,0.00,VWS V14.01,2013-03-02 20:38:00,
2013-03-02 12:43:00,73.8,24.8,30.15,ENE,74,5.0,5.0,16,0.00,,CLR,0.00,VWS V14.01,2013-03-02 20:43:00,
2013-03-02 12:49:00,73.9,24.9,30.15,ENE,74,1.0,6.0,16,0.00,,CLR,0.00,VWS V14.01,2013-03-02 20:49:00,
2013-03-02 12:54:00,73.8,26.3,30.14,ENE,74,0.0,5.0,17,0.00,,CLR,0.00,VWS V14.01,2013-03-02 20:54:00,
2013-03-02 12:59:00,73.9,24.9,30.13,ENE,74,2.0,7.0,16,0.00,,CLR,0.00,VWS V14.01,2013-03-02 20:59:00,
2013-03-02 13:04:00,73.9,24.9,30.13,ENE,75,4.0,5.0,16,0.00,,CLR,0.00,VWS V14.01,2013-03-02 21:04:00,
2013-03-02 13:09:00,73.8,24.8,30.13,ENE,75,0.0,6.0,16,0.00,,CLR,0.00,VWS V14.01,2013-03-02 21:09:00,
2013-03-02 13:14:00,73.9,24.9,30.12,ENE,75,0.0,4.0,16,0.00,,CLR,0.00,VWS V14.01,2013-03-02 21:14:00,
2013-03-02 13:19:00,74.0,23.5,30.12,ENE,75,0.0,4.0,15,0.00,,CLR,0.00,VWS V14.01,2013-03-02 21:19:00,
2013-03-02 13:24:00,74.1,25.1,30.12,NE,36,2.0,7.0,16,0.00,,CLR,0.00,VWS V14.01,2013-03-02 21:24:00,
2013-03-02 13:29:00,74.1,25.1,30.12,NE,36,0.0,7.0,16,0.00,,CLR,0.00,VWS V14.01,2013-03-02 21:29:00,
2013-03-02 13:34:00,74.1,25.1,30.12,NE,36,0.0,4.0,16,0.00,,CLR,0.00,VWS V14.01,2013-03-02 21:34:00,
2013-03-02 13:39:00,74.1,25.1,30.12,NNE,31,0.0,4.0,16,0.00,,CLR,0.00,VWS V14.01,2013-03-02 21:39:00,
2013-03-02 13:44:00,74.1,26.5,30.12,NNE,30,0.0,4.0,17,0.00,,CLR,0.00,VWS V14.01,2013-03-02 21:44:00,
2013-03-02 13:49:00,74.3,25.2,30.11,NE,36,3.0,5.0,16,0.00,,CLR,0.00,VWS V14.01,2013-03-02 21:49:00,
2013-03-02 13:54:00,74.5,25.4,30.11,NE,36,0.0,4.0,16,0.00,,CLR,0.00,VWS V14.01,2013-03-02 21:54:00,
2013-03-02 14:00:00,74.6,25.5,30.11,NE,34,1.0,4.0,16,0.00,,CLR,0.00,VWS V14.01,2013-03-02 22:00:00,
2013-03-02 14:05:00,74.6,25.5,30.11,NE,34,0.0,3.0,16,0.00,,CLR,0.00,VWS V14.01,2013-03-02 22:05:00,
2013-03-02 14:10:00,74.7,25.6,30.10,NE,34,1.0,3.0,16,0.00,,CLR,0.00,VWS V14.01,2013-03-02 22:10:00,
2013-03-02 14:15:00,74.9,24.2,30.10,NE,34,0.0,4.0,15,0.00,,CLR,0.00,VWS V14.01,2013-03-02 22:15:00,
2013-03-02 14:20:00,75.3,24.5,30.10,NE,34,1.0,1.0,15,0.00,,CLR,0.00,VWS V14.01,2013-03-02 22:20:00,
2013-03-02 14:25:00,75.7,24.8,30.10,NE,35,3.0,4.0,15,0.00,,CLR,0.00,VWS V14.01,2013-03-02 22:25:00,
2013-03-02 14:30:00,76.2,25.2,30.09,NE,34,2.0,3.0,15,0.00,,CLR,0.00,VWS V14.01,2013-03-02 22:30:00,
2013-03-02 14:35:00,76.6,25.5,30.09,NE,34,0.0,3.0,15,0.00,,CLR,0.00,VWS V14.01,2013-03-02 22:35:00,
2013-03-02 14:40:00,76.8,24.0,30.09,NE,34,3.0,3.0,14,0.00,,CLR,0.00,VWS V14.01,2013-03-02 22:40:00,
2013-03-02 14:45:00,76.6,25.5,30.09,NE,34,1.0,5.0,15,0.00,,CLR,0.00,VWS V14.01,2013-03-02 22:45:00,
2013-03-02 14:50:00,76.3,23.6,30.09,NE,34,1.0,2.0,14,0.00,,CLR,0.00,VWS V14.01,2013-03-02 22:50:00,
2013-03-02 14:56:00,76.2,25.2,30.08,NE,34,1.0,3.0,15,0.00,,CLR,0.00,VWS V14.01,2013-03-02 22:56:00,
2013-03-02 15:01:00,76.3,25.3,30.09,NE,54,1.0,5.0,15,0.00,,CLR,0.00,VWS V14.01,2013-03-02 23:01:00,
2013-03-02 15:06:00,76.5,20.2,30.08,SW,225,7.0,7.0,12,0.00,,CLR,0.00,VWS V14.01,2013-03-02 23:06:00,
2013-03-02 15:11:00,76.2,19.9,30.08,WSW,237,3.0,12.0,12,0.00,,CLR,0.00,VWS V14.01,2013-03-02 23:11:00,
2013-03-02 15:16:00,75.8,19.6,30.08,SSW,201,4.0,6.0,12,0.00,,CLR,0.00,VWS V14.01,2013-03-02 23:16:00,
2013-03-02 15:21:00,75.5,19.4,30.08,WSW,246,11.0,12.0,12,0.00,,CLR,0.00,VWS V14.01,2013-03-02 23:21:00,
2013-03-02 15:26:00,75.4,21.2,30.08,WSW,238,11.0,11.0,13,0.00,,CLR,0.00,VWS V14.01,2013-03-02 23:26:00,
2013-03-02 15:31:00,75.6,21.3,30.07,SSW,205,6.0,10.0,13,0.00,,CLR,0.00,VWS V14.01,2013-03-02 23:31:00,
2013-03-02 15:36:00,75.6,21.3,30.07,SW,217,0.0,2.0,13,0.00,,CLR,0.00,VWS V14.01,2013-03-02 23:36:00,
2013-03-02 15:41:00,75.3,21.1,30.07,SW,223,6.0,7.0,13,0.00,,CLR,0.00,VWS V14.01,2013-03-02 23:41:00,
2013-03-02 15:46:00,75.1,20.9,30.07,SSW,210,13.0,13.0,13,0.00,,CLR,0.00,VWS V14.01,2013-03-02 23:46:00,
2013-03-02 15:51:00,74.7,20.6,30.07,WSW,244,7.0,12.0,13,0.00,,CLR,0.00,VWS V14.01,2013-03-02 23:51:00,
2013-03-02 15:56:00,74.6,20.5,30.07,SSW,202,8.0,8.0,13,0.00,,CLR,0.00,VWS V14.01,2013-03-02 23:56:00,
2013-03-02 16:02:00,74.5,20.5,30.06,SW,235,7.0,10.0,13,0.00,,CLR,0.00,VWS V14.01,2013-03-03 00:02:00,
2013-03-02 16:07:00,74.3,20.3,30.06,WSW,258,13.0,13.0,13,0.00,,CLR,0.00,VWS V14.01,2013-03-03 00:07:00,
2013-03-02 16:12:00,74.1,21.9,30.06,SW,225,11.0,11.0,14,0.00,,CLR,0.00,VWS V14.01,2013-03-03 00:12:00,
2013-03-02 16:17:00,74.0,21.8,30.06,SW,235,13.0,16.0,14,0.00,,CLR,0.00,VWS V14.01,2013-03-03 00:17:00,
2013-03-02 16:22:00,74.3,22.1,30.06,WSW,240,6.0,15.0,14,0.00,,CLR,0.00,VWS V14.01,2013-03-03 00:22:00,
2013-03-02 16:27:00,74.6,22.3,30.06,WSW,240,7.0,11.0,14,0.00,,CLR,0.00,VWS V14.01,2013-03-03 00:27:00,
2013-03-02 16:32:00,74.6,22.3,30.06,SW,223,7.0,15.0,14,0.00,,CLR,0.00,VWS V14.01,2013-03-03 00:32:00,
2013-03-02 16:37:00,74.5,23.9,30.06,WSW,241,15.0,15.0,15,0.00,,CLR,0.00,VWS V14.01,2013-03-03 00:37:00,
2013-03-02 16:42:00,74.1,25.1,30.06,WSW,241,6.0,15.0,16,0.00,,CLR,0.00,VWS V14.01,2013-03-03 00:42:00,
2013-03-02 16:47:00,74.0,26.5,30.06,SW,235,6.0,6.0,17,0.00,,CLR,0.00,VWS V14.01,2013-03-03 00:47:00,
2013-03-02 16:52:00,73.5,26.1,30.06,WSW,238,13.0,14.0,17,0.00,,CLR,0.00,VWS V14.01,2013-03-03 00:52:00,
2013-03-02 16:57:00,73.2,27.2,30.06,WSW,243,5.0,12.0,18,0.00,,CLR,0.00,VWS V14.01,2013-03-03 00:57:00,
2013-03-02 17:02:00,72.4,26.5,30.05,SSW,205,8.0,13.0,18,0.00,,CLR,0.00,VWS V14.01,2013-03-03 01:02:00,
2013-03-02 17:07:00,72.2,26.4,30.06,SW,228,7.0,12.0,18,0.00,,CLR,0.00,VWS V14.01,2013-03-03 01:07:00,
2013-03-02 17:13:00,71.7,27.3,30.05,SW,220,7.0,8.0,19,0.00,,CLR,0.00,VWS V14.01,2013-03-03 01:13:00,
2013-03-02 17:18:00,71.5,27.1,30.05,SW,224,7.0,7.0,19,0.00,,CLR,0.00,VWS V14.01,2013-03-03 01:18:00,
2013-03-02 17:23:00,70.9,26.6,30.05,SW,228,3.0,8.0,19,0.00,,CLR,0.00,VWS V14.01,2013-03-03 01:23:00,
2013-03-02 17:28:00,70.7,26.5,30.05,SW,229,7.0,10.0,19,0.00,,CLR,0.00,VWS V14.01,2013-03-03 01:28:00,
2013-03-02 17:33:00,70.0,25.9,30.05,SW,225,7.0,12.0,19,0.00,,CLR,0.00,VWS V14.01,2013-03-03 01:33:00,
2013-03-02 17:38:00,69.8,25.7,30.05,SW,227,10.0,10.0,19,0.00,,CLR,0.00,VWS V14.01,2013-03-03 01:38:00,
2013-03-02 17:43:00,69.3,25.3,30.05,SW,223,10.0,14.0,19,0.00,,CLR,0.00,VWS V14.01,2013-03-03 01:43:00,
2013-03-02 17:48:00,69.2,25.2,30.05,SSW,209,11.0,14.0,19,0.00,,CLR,0.00,VWS V14.01,2013-03-03 01:48:00,
2013-03-02 17:53:00,68.6,24.7,30.05,SW,232,5.0,16.0,19,0.00,,CLR,0.00,VWS V14.01,2013-03-03 01:53:00,
2013-03-02 17:58:00,68.4,25.8,30.05,WSW,249,6.0,8.0,20,0.00,,CLR,0.00,VWS V14.01,2013-03-03 01:58:00,
2013-03-02 18:03:00,68.0,25.5,30.05,SSW,209,9.0,12.0,20,0.00,,CLR,0.00,VWS V14.01,2013-03-03 02:03:00,
2013-03-02 18:08:00,67.8,25.3,30.05,SW,219,8.0,16.0,20,0.00,,CLR,0.00,VWS V14.01,2013-03-03 02:08:00,
2013-03-02 18:13:00,67.7,25.2,30.05,SW,236,13.0,14.0,20,0.00,,CLR,0.00,VWS V14.01,2013-03-03 02:13:00,
2013-03-02 18:18:00,67.5,23.8,30.05,SW,226,10.0,14.0,19,0.00,,CLR,0.00,VWS V14.01,2013-03-03 02:18:00,
2013-03-02 18:23:00,67.3,23.7,30.05,SW,232,8.0,13.0,19,0.00,,CLR,0.00,VWS V14.01,2013-03-03 02:23:00,
2013-03-02 18:28:00,67.1,23.5,30.05,SW,234,10.0,20.0,19,0.00,,CLR,0.00,VWS V14.01,2013-03-03 02:28:00,
2013-03-02 18:34:00,66.8,23.2,30.05,SSW,213,13.0,14.0,19,0.00,,CLR,0.00,VWS V14.01,2013-03-03 02:34:00,
2013-03-02 18:39:00,66.7,23.2,30.06,SSW,207,8.0,17.0,19,0.00,,CLR,0.00,VWS V14.01,2013-03-03 02:39:00,
2013-03-02 18:44:00,66.5,23.0,30.06,SW,228,8.0,14.0,19,0.00,,CLR,0.00,VWS V14.01,2013-03-03 02:44:00,
2013-03-02 18:49:00,66.3,22.8,30.06,SW,227,11.0,17.0,19,0.00,,CLR,0.00,VWS V14.01,2013-03-03 02:49:00,
2013-03-02 18:54:00,66.0,22.6,30.06,SW,221,13.0,16.0,19,0.00,,CLR,0.00,VWS V14.01,2013-03-03 02:54:00,
2013-03-02 18:59:00,65.7,22.3,30.07,SW,220,9.0,20.0,19,0.00,,CLR,0.00,VWS V14.01,2013-03-03 02:59:00,
2013-03-02 19:04:00,65.5,22.2,30.07,SSW,205,10.0,16.0,19,0.00,,CLR,0.00,VWS V14.01,2013-03-03 03:04:00,
2013-03-02 19:09:00,65.3,22.0,30.07,SSW,208,11.0,17.0,19,0.00,,CLR,0.00,VWS V14.01,2013-03-03 03:09:00,
2013-03-02 19:14:00,65.3,22.0,30.07,SSW,207,9.0,14.0,19,0.00,,CLR,0.00,VWS V14.01,2013-03-03 03:14:00,
2013-03-02 19:19:00,65.2,21.9,30.06,SSW,206,6.0,17.0,19,0.00,,CLR,0.00,VWS V14.01,2013-03-03 03:19:00,
2013-03-02 19:24:00,65.2,21.9,30.07,SW,215,13.0,17.0,19,0.00,,CLR,0.00,VWS V14.01,2013-03-03 03:24:00,
2013-03-02 19:30:00,65.1,21.9,30.07,SSW,203,15.0,15.0,19,0.00,,CLR,0.00,VWS V14.01,2013-03-03 03:30:00,
2013-03-02 19:35:00,65.0,21.8,30.07,SW,218,7.0,17.0,19,0.00,,CLR,0.00,VWS V14.01,2013-03-03 03:35:00,
2013-03-02 19:40:00,64.9,21.7,30.07,SW,224,9.0,17.0,19,0.00,,CLR,0.00,VWS V14.01,2013-03-03 03:40:00,
2013-03-02 19:45:00,64.9,21.7,30.07,SSW,192,5.0,15.0,19,0.00,,CLR,0.00,VWS V14.01,2013-03-03 03:45:00,
2013-03-02 19:50:00,64.7,21.5,30.07,SW,224,8.0,15.0,19,0.00,,CLR,0.00,VWS V14.01,2013-03-03 03:50:00,
2013-03-02 19:55:00,64.6,21.4,30.07,SW,217,10.0,13.0,19,0.00,,CLR,0.00,VWS V14.01,2013-03-03 03:55:00,
2013-03-02 20:00:00,64.5,21.4,30.07,SSW,212,10.0,13.0,19,0.00,,CLR,0.00,VWS V14.01,2013-03-03 04:00:00,
2013-03-02 20:05:00,64.5,21.4,30.07,SW,232,11.0,16.0,19,0.00,,CLR,0.00,VWS V14.01,2013-03-03 04:05:00,
2013-03-02 20:10:00,64.5,21.4,30.07,SW,214,12.0,16.0,19,0.00,,CLR,0.00,VWS V14.01,2013-03-03 04:10:00,
2013-03-02 20:15:00,64.5,21.4,30.07,SW,219,10.0,11.0,19,0.00,,CLR,0.00,VWS V14.01,2013-03-03 04:15:00,
2013-03-02 20:20:00,64.5,21.4,30.07,SW,217,11.0,16.0,19,0.00,,CLR,0.00,VWS V14.01,2013-03-03 04:20:00,
2013-03-02 20:25:00,64.4,21.3,30.07,SW,221,7.0,13.0,19,0.00,,CLR,0.00,VWS V14.01,2013-03-03 04:25:00,
2013-03-02 20:31:00,64.3,21.2,30.07,SSW,213,7.0,10.0,19,0.00,,CLR,0.00,VWS V14.01,2013-03-03 04:31:00,
2013-03-02 20:36:00,64.2,21.1,30.07,SW,220,4.0,7.0,19,0.00,,CLR,0.00,VWS V14.01,2013-03-03 04:36:00,
2013-03-02 20:41:00,64.0,20.9,30.07,SW,220,3.0,9.0,19,0.00,,CLR,0.00,VWS V14.01,2013-03-03 04:41:00,
2013-03-02 20:46:00,63.8,20.8,30.07,SW,223,3.0,6.0,19,0.00,,CLR,0.00,VWS V14.01,2013-03-03 04:46:00,
2013-03-02 20:51:00,63.8,20.8,30.07,SW,225,2.0,5.0,19,0.00,,CLR,0.00,VWS V14.01,2013-03-03 04:51:00,
2013-03-02 20:56:00,63.7,20.7,30.07,WNW,290,6.0,11.0,19,0.00,,CLR,0.00,VWS V14.01,2013-03-03 04:56:00,
2013-03-02 21:00:00,63.8,20.8,30.07,WSW,238,6.0,11.0,19,0.00,,CLR,0.00,VWS V14.01,2013-03-03 05:00:00,
2013-03-02 21:01:00,63.8,20.8,30.07,SW,232,2.0,6.0,19,0.00,,CLR,0.00,VWS V14.01,2013-03-03 05:01:00,
2013-03-02 21:06:00,63.8,20.8,30.07,SW,233,0.0,0.0,19,0.00,,CLR,0.00,VWS V14.01,2013-03-03 05:06:00,
2013-03-02 21:11:00,63.6,20.6,30.08,SW,233,4.0,4.0,19,0.00,,CLR,0.00,VWS V14.01,2013-03-03 05:11:00,
2013-03-02 21:16:00,63.3,21.6,30.08,WSW,242,0.0,2.0,20,0.00,,CLR,0.00,VWS V14.01,2013-03-03 05:16:00,
2013-03-02 21:21:00,62.9,21.2,30.08,WSW,242,0.0,2.0,20,0.00,,CLR,0.00,VWS V14.01,2013-03-03 05:21:00,
2013-03-02 21:26:00,62.3,21.9,30.08,WSW,242,0.0,0.0,21,0.00,,CLR,0.00,VWS V14.01,2013-03-03 05:26:00,
2013-03-02 21:31:00,62.0,21.6,30.08,WNW,290,0.0,0.0,21,0.00,,CLR,0.00,VWS V14.01,2013-03-03 05:31:00,
2013-03-02 21:36:00,61.9,20.4,30.08,WSW,238,5.0,11.0,20,0.00,,CLR,0.00,VWS V14.01,2013-03-03 05:36:00,
2013-03-02 21:42:00,61.9,20.4,30.08,SE,142,2.0,8.0,20,0.00,,CLR,0.00,VWS V14.01,2013-03-03 05:42:00,
2013-03-02 21:47:00,62.3,20.8,30.08,SSW,199,0.0,11.0,20,0.00,,CLR,0.00,VWS V14.01,2013-03-03 05:47:00,
2013-03-02 21:52:00,62.8,21.2,30.08,SSW,200,1.0,3.0,20,0.00,,CLR,0.00,VWS V14.01,2013-03-03 05:52:00,
2013-03-02 21:57:00,63.1,21.4,30.07,SW,229,2.0,13.0,20,0.00,,CLR,0.00,VWS V14.01,2013-03-03 05:57:00,
2013-03-02 22:02:00,63.3,21.6,30.07,WSW,240,3.0,13.0,20,0.00,,CLR,0.00,VWS V14.01,2013-03-03 06:02:00,
2013-03-02 22:07:00,63.3,20.4,30.07,SSW,213,4.0,4.0,19,0.00,,CLR,0.00,VWS V14.01,2013-03-03 06:07:00,
2013-03-02 22:12:00,63.2,20.3,30.07,West,271,1.0,8.0,19,0.00,,CLR,0.00,VWS V14.01,2013-03-03 06:12:00,
2013-03-02 22:17:00,63.2,20.3,30.07,SW,231,0.0,5.0,19,0.00,,CLR,0.00,VWS V14.01,2013-03-03 06:17:00,
2013-03-02 22:22:00,63.0,20.1,30.07,SW,233,0.0,5.0,19,0.00,,CLR,0.00,VWS V14.01,2013-03-03 06:22:00,
2013-03-02 22:27:00,62.7,21.1,30.07,SW,234,0.0,4.0,20,0.00,,CLR,0.00,VWS V14.01,2013-03-03 06:27:00,
2013-03-02 22:32:00,62.2,20.7,30.07,SW,234,1.0,5.0,20,0.00,,CLR,0.00,VWS V14.01,2013-03-03 06:32:00,
2013-03-02 22:37:00,61.8,20.3,30.07,SW,234,0.0,1.0,20,0.00,,CLR,0.00,VWS V14.01,2013-03-03 06:37:00,
2013-03-02 22:42:00,61.6,20.2,30.07,SW,234,3.0,5.0,20,0.00,,CLR,0.00,VWS V14.01,2013-03-03 06:42:00,
2013-03-02 22:47:00,61.7,20.2,30.07,SW,229,2.0,8.0,20,0.00,,CLR,0.00,VWS V14.01,2013-03-03 06:47:00,
2013-03-02 22:52:00,61.8,20.3,30.06,SW,229,2.0,10.0,20,0.00,,CLR,0.00,VWS V14.01,2013-03-03 06:52:00,
2013-03-02 22:58:00,61.8,20.3,30.06,SSW,209,2.0,7.0,20,0.00,,CLR,0.00,VWS V14.01,2013-03-03 06:58:00,
2013-03-02 23:03:00,61.9,19.2,30.07,SW,232,5.0,6.0,19,0.00,,CLR,0.00,VWS V14.01,2013-03-03 07:03:00,
2013-03-02 23:08:00,61.9,20.4,30.06,SW,217,5.0,8.0,20,0.00,,CLR,0.00,VWS V14.01,2013-03-03 07:08:00,
2013-03-02 23:13:00,61.9,19.2,30.06,SW,215,5.0,9.0,19,0.00,,CLR,0.00,VWS V14.01,2013-03-03 07:13:00,
2013-03-02 23:18:00,61.8,19.1,30.06,SW,215,5.0,10.0,19,0.00,,CLR,0.00,VWS V14.01,2013-03-03 07:18:00,
2013-03-02 23:23:00,61.9,19.2,30.06,SW,218,4.0,12.0,19,0.00,,CLR,0.00,VWS V14.01,2013-03-03 07:23:00,
2013-03-02 23:28:00,62.0,19.3,30.06,SW,225,3.0,12.0,19,0.00,,CLR,0.00,VWS V14.01,2013-03-03 07:28:00,
2013-03-02 23:33:00,62.0,19.3,30.06,SSW,212,1.0,10.0,19,0.00,,CLR,0.00,VWS V14.01,2013-03-03 07:33:00,
2013-03-02 23:38:00,62.1,19.4,30.05,SW,215,4.0,9.0,19,0.00,,CLR,0.00,VWS V14.01,2013-03-03 07:38:00,
2013-03-02 23:43:00,62.2,19.5,30.05,SW,217,4.0,10.0,19,0.00,,CLR,0.00,VWS V14.01,2013-03-03 07:43:00,
2013-03-02 23:48:00,62.3,19.5,30.04,SW,215,2.0,10.0,19,0.00,,CLR,0.00,VWS V14.01,2013-03-03 07:48:00,
2013-03-02 23:53:00,62.3,19.5,30.05,SSW,209,8.0,14.0,19,0.00,,CLR,0.00,VWS V14.01,2013-03-03 07:53:00,
2013-03-02 23:58:00,62.5,19.7,30.05,SW,221,5.0,12.0,19,0.00,,CLR,0.00,VWS V14.01,2013-03-03 07:58:00,